TimeCST,TemperatureF,Dew PointF,Humidity,Sea Level PressureIn,VisibilityMPH,Wind Direction,Wind SpeedMPH,Gust SpeedMPH,PrecipitationIn,Events,Conditions,WindDirDegrees,DateUTC
12:18 AM,21.2,17.6,86,30.13,8.0,NNW,16.1,-,N/A,,Overcast,340,2013-01-03 06:18:00
1:48 AM,15.8,10.4,79,30.16,5.0,NNW,16.1,-,N/A,,Haze,330,2013-01-03 07:48:00
1:52 AM,16.0,10.9,81,30.23,4.0,NNW,15.0,-,N/A,,Haze,330,2013-01-03 07:52:00
2:52 AM,12.9,7.0,77,30.25,7.0,NW,19.6,-,N/A,,Mostly Cloudy,320,2013-01-03 08:52:00
2:59 AM,12.2,6.8,79,30.18,8.0,NW,16.1,-,N/A,,Scattered Clouds,320,2013-01-03 08:59:00
3:52 AM,10.0,5.0,80,30.25,10.0,NW,16.1,-,N/A,,Clear,310,2013-01-03 09:52:00
4:39 AM,8.6,3.2,79,30.19,6.0,NW,18.4,-,N/A,,Haze,320,2013-01-03 10:39:00
4:52 AM,9.0,3.9,80,30.27,5.0,NW,20.7,-,N/A,,Haze,320,2013-01-03 10:52:00
5:07 AM,8.6,3.2,79,30.20,5.0,NW,20.7,-,N/A,,Haze,320,2013-01-03 11:07:00
5:32 AM,8.6,3.2,79,30.21,8.0,NW,19.6,-,N/A,,Scattered Clouds,310,2013-01-03 11:32:00
5:52 AM,7.0,1.9,80,30.29,8.0,NW,20.7,-,N/A,,Clear,310,2013-01-03 11:52:00
6:03 AM,6.8,1.4,79,30.23,6.0,NW,18.4,-,N/A,,Haze,310,2013-01-03 12:03:00
6:14 AM,6.8,1.4,79,30.23,7.0,NW,17.3,-,N/A,,Mostly Cloudy,310,2013-01-03 12:14:00
6:52 AM,6.1,1.0,80,30.32,8.0,NW,17.3,-,N/A,,Mostly Cloudy,320,2013-01-03 12:52:00
7:07 AM,6.8,1.4,79,30.25,9.0,NW,16.1,-,N/A,,Scattered Clouds,310,2013-01-03 13:07:00
7:52 AM,5.0,-0.0,80,30.33,10.0,NW,13.8,-,N/A,,Clear,310,2013-01-03 13:52:00
8:52 AM,5.0,-0.0,80,30.35,10.0,WNW,13.8,-,N/A,,Clear,300,2013-01-03 14:52:00
9:52 AM,7.0,1.9,80,30.37,10.0,WNW,13.8,-,N/A,,Clear,300,2013-01-03 15:52:00
10:52 AM,9.0,3.0,77,30.38,10.0,NW,16.1,-,N/A,,Clear,310,2013-01-03 16:52:00
11:52 AM,10.9,5.0,77,30.36,10.0,WNW,16.1,-,N/A,,Clear,300,2013-01-03 17:52:00
12:52 PM,12.0,6.1,77,30.35,10.0,WNW,13.8,-,N/A,,Clear,300,2013-01-03 18:52:00
2:52 PM,15.1,8.1,74,30.35,9.0,WNW,13.8,-,N/A,,Mostly Cloudy,290,2013-01-03 20:52:00
3:52 PM,15.1,9.0,77,30.35,5.0,West,6.9,-,0.00,Snow,Light Snow,270,2013-01-03 21:52:00
4:45 PM,14.0,8.6,79,30.27,10.0,WSW,8.1,-,0.00,,Scattered Clouds,240,2013-01-03 22:45:00
4:52 PM,14.0,9.0,80,30.35,10.0,SW,8.1,-,0.00,,Partly Cloudy,230,2013-01-03 22:52:00
5:52 PM,14.0,9.0,80,30.34,10.0,SW,12.7,-,N/A,,Partly Cloudy,230,2013-01-03 23:52:00
6:04 PM,14.0,10.4,86,30.25,10.0,SW,10.4,-,N/A,,Mostly Cloudy,230,2013-01-04 00:04:00
6:26 PM,12.2,8.6,85,30.24,10.0,SW,10.4,-,N/A,,Scattered Clouds,230,2013-01-04 00:26:00
6:52 PM,12.0,8.1,84,30.34,10.0,SW,9.2,-,N/A,,Clear,230,2013-01-04 00:52:00
7:52 PM,14.0,10.0,84,30.32,10.0,SW,11.5,-,N/A,,Clear,230,2013-01-04 01:52:00
8:52 PM,14.0,10.0,84,30.29,10.0,WSW,13.8,-,N/A,,Clear,240,2013-01-04 02:52:00
9:52 PM,15.1,10.9,84,30.27,9.0,WSW,13.8,-,N/A,,Clear,240,2013-01-04 03:52:00
10:52 PM,16.0,10.9,81,30.25,10.0,WSW,13.8,-,N/A,,Clear,240,2013-01-04 04:52:00
11:52 PM,16.0,10.9,81,30.23,10.0,WSW,13.8,-,N/A,,Clear,250,2013-01-04 05:52:00